Regional Weather Roundup
Issued by NWS Wakefield, VA

Home | Current Version | Previous Version | Graphics & Text | Print | Product List | Glossary On
Versions: 1 2 3 4 5 6 7 8 9 10 11 12 13 14 15 16 17 18 19 20 21 22 23 24 25 26 27 28 29 30 31 32 33 34 35 36 37 38 39 40 41 42 43 44 45 46 47 48 49 50
000
ASUS41 KAKQ 261615
RWRAKQ

REGIONAL WEATHER ROUNDUP
NATIONAL WEATHER SERVICE WAKEFIELD VA
1200 PM EDT TUE JUL 26 2016

Note: "fair" indicates few or no clouds below 12,000 feet with no
significant weather and/or obstructions to visibility. * = Denotes
station may not report precipitation (e.g., rain,snow,etc.),
thunder or fog.

VAZ042-051-052>054-056-261700-
NORTHERN VIRGINIA

CITY           SKY/WX    TMP DP  RH WIND       PRES   REMARKS
WASH NATIONAL  CLOUDY    92  73  53 NW8       29.97S HX 100
DULLES         PTSUNNY   87  71  58 NW5       29.99R
FORT BELVOIR   FAIR      91  71  52 VRB2      29.97S HX  97
QUANTICO       PTSUNNY   92  73  53 N5        29.97S HX 100
FREDERICKSBRG*   N/A     92  75  57 NW3       29.96F HX 102
STAFFORD*      FAIR      90  71  53 NW5       30.02S HX  96
WARRENTON      FAIR      93  68  44 N6        29.99S HX  97
CULPEPER*      FAIR      90  76  64 NW3       29.99S HX 101
MANASSAS*      MOSUNNY   90  73  58 N6        29.98S HX  98
LEESBURG*      FAIR      88  75  66 NW8G18    30.00S HX  97
WINCHESTER     FAIR      86  72  62 W6        30.01S
FRONT ROYAL*   FAIR      86  72  62 N5        30.01S
LURAY*         FAIR      88  70  55 SW3       30.02S
$$

VAZ048-049-060>072-079>083-261700-
CENTRAL AND SOUTH CENTRAL VIRGINIA

CITY           SKY/WX    TMP DP  RH WIND       PRES   REMARKS
RICHMOND       PTSUNNY   91  73  55 N7        29.97S HX  99
CHESTERFIELD*  FAIR      95  66  38 E3        29.99S HX  98
PETERSBURG*    FAIR      93  73  51 N5        29.98S HX 101
HANOVER        FAIR      92  73  53 VRB3      29.99S HX 100
TAPPAHANNOCK*  FAIR      93  69  44 NW5       29.97F HX  98
QUINTON*       FAIR      90  77  66 N5        29.96S HX 102
CHARLOTTSVILLE FAIR      95  71  45 CALM      29.99S HX 102
GORDONSVILLE*  PTSUNNY   91  75  58 N3        29.98F HX 101
ORANGE*          N/A     90  72  55 CALM      30.01S HX  96
LOUISA*        FAIR      93  77  59 N5        29.98S HX 107
BUMPASS*       FAIR      90  75  62 CALM      29.99S HX 100
FARMVILLE*     NOT AVBL
CREWE*         PTSUNNY   92  75  57 CALM      29.98S HX 102
FORT PICKETT*  FAIR      90  77  64 CALM      29.99S HX 103
CHASE CITY*    FAIR      90  74  59 W3        30.00S HX 100
CLARKSVILLE*   FAIR      91  73  55 CALM      29.99S HX 100
SOUTH HILL*    FAIR      92  76  59 W3        30.04S HX 103
LAWRENCEVILLE* FAIR      91  77  64 N5        29.98S HX 104
EMPORIA*       FAIR      91  75  59 CALM      29.99S HX 102
$$

VAZ088>098-261700-
SOUTHEAST VIRGINIA

CITY           SKY/WX    TMP DP  RH WIND       PRES   REMARKS
NORFOLK        FAIR      93  74  53 N6        29.96S HX 103
VIRGINIA BEACH FAIR      97  74  47 NW6       29.95R HX 108
NORFOLK NAVAL  FAIR      91  75  59 W8        29.97S HX 101
WEST POINT*    FAIR      91  73  54 CALM      29.97S HX  99
SALUDA*        FAIR      90  79  70 W3        29.95S HX 106
NEWPORT NEWS   FAIR      91  78  65 NE3       29.96S HX 106
LANGLEY AFB    MOSUNNY   91  77  63 VRB5      29.96R HX 104
FORT EUSTIS    FAIR      92  79  65 VRB5      29.95S HX 108
WILLIAMSBURG*  FAIR      97  79  56 N6        29.97S HX 115
HR EXEC AP*    FAIR      91  77  62 W6        29.98S HX 105
FRANKLIN*      FAIR      90  77  65 NW3       29.97S HX 102
US460-WAKEFLD  FAIR      91  76  61 VRB3      29.97S HX 103
$$

VAZ020-022-025-037-045-261700-
WEST CENTRAL AND SOUTHWEST VIRGINIA

CITY           SKY/WX    TMP DP  RH WIND       PRES   REMARKS
STAUNTON*      FAIR      87  69  55 N5        30.06S
WAYNESBORO*    FAIR      87  68  52 N3        30.06S
HOT SPRINGS VA NOT AVBL
LYNCHBURG      FAIR      90  71  53 CALM      30.04S HX  96
DANVILLE       FAIR      91  73  55 VRB5      30.01S HX  99
SOUTH BOSTON*  FAIR      93  74  54 NW5       30.00S HX 102
MARTINSVILLE   FAIR      89  72  56 N5        30.06F HX  96
ROANOKE        FAIR      90  70  51 NW6       30.07S HX  95
BLACKSBURG     FAIR      84  72  67 W5        30.15S
DUBLIN*        PTSUNNY   86  71  59 W3        30.13S
MARION*        PTSUNNY   83  72  70 SW6       30.18S
HILLSVILLE*    FAIR      82  70  67 NW7       30.15S
RICHLANDS*     PTSUNNY   81  71  71 CALM      30.18R
WISE*          CLOUDY    82  63  51 W3        30.19S
ABINGDON*      PTSUNNY   85  73  67 W7        30.15S
$$

MDZ021>025-VAZ099-100-261700-
SOUTHERN MARYLAND AND THE DELMARVA PENINSULA

CITY           SKY/WX    TMP DP  RH WIND       PRES   REMARKS
PATUXENT RIVER PTSUNNY   90  73  57 N6        29.96S HX  98
BAY BRIDGE APT PTSUNNY   84  75  74 N3        29.96S
LEONARDTOWN    PTSUNNY   88  73  62 N3        29.98  HX  96
DOVER          MOSUNNY   88  74  64 VRB3      29.94S HX  97
GEORGETOWN     MOSUNNY   90  72  55 VRB3      29.96S HX  97
EASTON         PTSUNNY   90  79  70 N3        30.00R HX 105
CAMBRIDGE      MOSUNNY   86  73  66 CALM      29.95S
SALISBURY      MOSUNNY   89  76  65 VRB5      29.95S HX 100
OCEAN CITY     MOSUNNY   86  74  67 E8        29.95S
WALLOPS ISLAND FAIR      86  77  74 E7        29.96S HX  97
ACCOMACK*      FAIR     N/A N/A N/A CALM      29.96R
$$

NCZ012>017-030>032-261700-
NORTH CENTRAL AND EASTERN NORTH CAROLINA

CITY           SKY/WX    TMP DP  RH WIND       PRES   REMARKS
ROANOKE RAPIDS FAIR      90  77  66 SW3       29.98S HX 102
RALEIGH        PTSUNNY   90  75  61 SW6       30.01S HX 100
ELIZABETH CITY SUNNY     90  76  63 W10       29.97S HX 101
AHOSKIE*       SUNNY     87  77  72 CALM      29.98S HX 100
EDENTON*       SUNNY     91  75  59 SW9       29.98F HX 101
CURRITUCK*     SUNNY     89  76  65 W9        29.98R HX 101
KILL DEVIL HLS SUNNY     92  74  56 SW9       29.96S HX 102
MANTEO           N/A     89  77  68 W8        29.98S HX 101
CAPE HATTERAS  SUNNY     84  77  79 SW15G21   30.00F
TARBORO*       FAIR      91  77  64 W3        29.99F HX 103
GOLDSBORO      SUNNY     91  77  63 VRB3      30.00F HX 105
WASHINGTON     SUNNY     89  77  66 SW8       29.99F HX 102
GREENVILLE     SUNNY     90  77  66 SW9       30.01F HX 102
NEW BERN       SUNNY     90  75  61 W8        30.02F HX 100
WILMINGTON     MOSUNNY   87  74  64 SW8       30.04F HX  95
$$

VAZ048-261700-
ELSEWHERE

CITY           SKY/WX    TMP DP  RH WIND       PRES   REMARKS
HARRISBURG PA  MOSUNNY   86  70  58 NW12      29.96S
BALTIMORE      CLOUDY    93  66  40 W12       29.95S HX  96
ANNAPOLIS      PTSUNNY   89  76  65 E3        29.95S HX 100
ANDREWS AFB    PTSUNNY   89  73  58 VRB5      29.96S HX  96
PHILADELPHIA   PTSUNNY   89  67  47 NW9       29.94S
GREENSBORO     CLOUDY    91  69  48 NW5       30.03S HX  96
ROCKY MOUNT    SUNNY     90  77  65 SW6       30.00S HX 103
$$

VAZ100-261700-
MARINE

STATION/POSITION TIME  TEMP    WIND        PRES    WAVE   SWELL
                       AIR SEA DIR/SP/G            HT/PER HT/PER
                 (UTC) (F)     (DEG/KT/KT) (MB)    (FT/S) (FT/S)
BRANDYWINE LGT   1500   81     330/  4/  6   N/A
CAPE MAY NJ      1500   85 72  320/  5/  7 1013.7F
LEWES DE         1500   80 74  330/  1/  2 1014.2S
OCEAN-CITY-INLET 1500   82 80   80/  3/  5 1014.7R
WACHAPREAGUE VA  1500   90 86   10/  4/  7 1014.0R
THOMAS POINT MD  1600   83 83   80/  4/  4 1015.9S
GOOSES REEF MD   1600   84 85  340/  4/  4 1015.8R   1/ 2
COVE POINT MD    1500   82     360/  6/  8 1015.1R
SOLOMONS ISLAND  1500   86 84   40/  3/  5   N/A
BISHOPS HEAD MD  1500   86 86   30/  4/  8 1014.7R
PINEY POINT MD   1500          310/  6/  7   N/A
POTOMAC MD       1600   85 87   30/  8/ 10 1013.5R   0
CAMBRIDGE MD     1500   86 86   50/  4/  4 1013.5S
LEWISETTA VA     1500   84 85   10/  5/  6 1014.1R
RAPPAHANNOCK LGT 1500          350/ 11/ 12 1015.0R
STINGRAY PT      1600   85 86  330/ 12/ 14 1015.0R   1
YORK RVR RNG VA  1500   86     280/  8/  9 1013.8R
YORKTOWN VA      1500   85 84  320/  7/  9 1014.1R
JAMESTOWN VA     1600   87 88  270/  4/  6   N/A     0
DOMINION TERM VA 1500   85     320/  8/ 10 1014.6R
KIPTOPEKE VA     1500      82  300/ 10/ 11   N/A
CHES BAY BRIDGE  1500   83 80  250/ 10/ 10 1014.3R
CAPE HENRY VA    1500   86     270/ 11/ 13   N/A
WILLOUBY STN VA  1500   84     270/  8/  9   N/A
CAPE HENRY BUOY  1512      70                N/A     2/ 6
1ST LANDING BUOY 1600   84 82  270/  8/  8 1014.1R
CAPE CHARLES BUO 1526      65                N/A     2/ 4
OFFSHORE WE BUOY 1521      80                N/A     3/ 5
64NM E OF VA BCH 1550   81 81  250/ 10/ 12 1014.5R   4/ 6   3/ 6
DUCK PIER NC     1500   84 60  240/ 12/ 15 1014.1F
44100 DUCK FRF   1505      74                N/A     2/ 4
44056 DUCK FRF   1511      65                N/A     1/ 8
OREGON INLET NC  1500   85 84  230/  9/ 12 1015.1F
HATTERAS NC      1500   85 82  230/ 11/ 14 1016.1R
DIAMOND SHLS NC  1550   83 84  240/ 19/ 23 1016.1F   5/ 6
CAPE LOOKOUT NC  1600   85     240/ 12/ 16 1016.9S
$$



USA.gov is the U.S. government's official web portal to all federal, state and local government web resources and services.